Tracking 20239 objects as of 23-Jan-2020
HD Live streaming from Space Station
objects crossing your sky now

ORBCOMM FM 38

Track ORBCOMM FM 38 now!
10-day predictions
ORBCOMM FM 38 is classified as:


NORAD ID: 33060
Int'l Code: 2008-031A
Perigee: 652.1 km
Apogee: 661.4 km
Inclination: 48.4 °
Period: 97.7 minutes
Semi major axis: 7027 km
RCS: 1.1405 m2 (large)
Launch date: June 19, 2008
Source: ORBCOMM (ORB)
Launch site: KAPUSTIN YAR MISSILE AND SPACE COMPLEX (KYMTR)

This spacecraft is one of the 5 ORBCOMM satellites launched on Jun 19, 2008 designed to replenish the company's aging constellation.
aabbcc
Your satellite tracking list
Your tracking list is empty




NASA's NSSDC Master Catalog

Two Line Element Set (TLE):
1 33060U 08031A   20022.40130169 -.00000088  00000-0  17366-4 0  9998
2 33060  48.4430 271.9017 0006610 265.0480  94.9678 14.73608396623407
Source of the keplerian elements: AFSPC